Simultaneous Nadir Overpasses (SNOs) Predictions

Prediction of SNOs between GOES-16 and NOAA-19 Satellite Orbit:

Table of predicted SNOs for the next 14.0 days since TLE Epoch: 3/27/2020
Index Date Time (GOES-16) GOES-16 Lat,Lon NOAA-19 Lat,Lon Distance(km) Time Diff (sec)
1 03/28/2020 10:41:25 0.00, -75.14 -0.12, -74.67 53.74 80
2 03/29/2020 10:27:05 -0.01, -75.14 -0.80, -71.83 378.60 80
3 03/31/2020 22:48:07 0.03, -75.13 -0.35, -76.80 190.34 80
4 04/01/2020 22:39:07 0.03, -75.13 0.29, -73.94 135.23 80
5 04/02/2020 22:27:27 0.02, -75.13 0.99, -71.10 460.91 80
6 04/04/2020 11:00:10 -0.02, -75.15 0.87, -78.92 430.98 80
7 04/05/2020 10:48:30 -0.02, -75.15 0.18, -76.07 104.99 80
8 04/06/2020 10:34:10 -0.02, -75.16 -0.45, -73.22 221.17 80
9 04/08/2020 22:55:11 0.03, -75.17 -0.65, -78.20 345.22 80
10 04/09/2020 22:43:31 0.03, -75.18 -0.02, -75.34 18.70 80




NCC Satellite Simultaneous Nadir Overpasses (SNOs) Prediction Service
